owner,sensor,date,latitude,longitude,vertical_datum,sea_water_practical_salinity,qcFlag 
LUMCON,ioos:station:LUMCON:101:1,2014-12-02T06:45:00Z,29.2533,-90.6633,1.47,15.57,1111122 
LUMCON,ioos:station:LUMCON:101:1,2014-12-02T14:45:00Z,29.2533,-90.6633,1.67,16.52,1111122 
LUMCON,ioos:station:LUMCON:101:1,2014-12-03T01:45:00Z,29.2533,-90.6633,1.65,16.85,1111122 
LUMCON,ioos:station:LUMCON:101:1,2014-12-03T13:45:00Z,29.2533,-90.6633,1.62,13.57,1111122 
LUMCON,ioos:station:LUMCON:101:1,2014-12-03T20:45:00Z,29.2533,-90.6633,1.81,14.76,1111122 
LUMCON,ioos:station:LUMCON:101:1,2014-12-04T05:45:00Z,29.2533,-90.6633,1.56,13.69,1111122 
LUMCON,ioos:station:LUMCON:101:1,2014-12-04T12:45:00Z,29.2533,-90.6633,1.56,13.73,1111122 
LUMCON,ioos:station:LUMCON:101:1,2014-12-04T13:45:00Z,29.2533,-90.6633,1.6,16.04,1111122 
LUMCON,ioos:station:LUMCON:101:1,2014-12-04T14:45:00Z,29.2533,-90.6633,1.65,16.18,1111122 
LUMCON,ioos:station:LUMCON:101:1,2014-12-04T15:45:00Z,29.2533,-90.6633,1.69,16.25,1111122 
LUMCON,ioos:station:LUMCON:101:1,2014-12-04T16:45:00Z,29.2533,-90.6633,1.72,16.5,1111122 
LUMCON,ioos:station:LUMCON:101:1,2014-12-04T17:45:00Z,29.2533,-90.6633,1.75,16.64,1111122 
LUMCON,ioos:station:LUMCON:101:1,2014-12-04T18:45:00Z,29.2533,-90.6633,1.79,16.96,1111122 
LUMCON,ioos:station:LUMCON:101:1,2014-12-04T19:45:00Z,29.2533,-90.6633,1.81,17.13,1111122 
LUMCON,ioos:station:LUMCON:101:1,2014-12-04T20:45:00Z,29.2533,-90.6633,1.84,15.06,1111122 
LUMCON,ioos:station:LUMCON:101:1,2014-12-04T21:45:00Z,29.2533,-90.6633,1.85,15.08,1111122 
LUMCON,ioos:station:LUMCON:101:1,2014-12-04T22:45:00Z,29.2533,-90.6633,1.86,15.25,1111122 
LUMCON,ioos:station:LUMCON:101:1,2014-12-04T23:45:00Z,29.2533,-90.6633,1.87,15.24,1111122 
LUMCON,ioos:station:LUMCON:101:1,2014-12-05T00:45:00Z,29.2533,-90.6633,1.86,15.24,1111122 
LUMCON,ioos:station:LUMCON:101:1,2014-12-05T01:45:00Z,29.2533,-90.6633,1.83,17.54,1111122 
LUMCON,ioos:station:LUMCON:101:1,2014-12-05T02:45:00Z,29.2533,-90.6633,1.79,17.98,1111122 
LUMCON,ioos:station:LUMCON:101:1,2014-12-05T03:45:00Z,29.2533,-90.6633,1.73,16.16,1111122 
LUMCON,ioos:station:LUMCON:101:1,2014-12-05T04:45:00Z,29.2533,-90.6633,1.68,17.55,1111122 
LUMCON,ioos:station:LUMCON:101:1,2014-12-05T05:45:00Z,29.2533,-90.6633,1.62,16.25,1111122 
LUMCON,ioos:station:LUMCON:101:1,2014-12-05T06:45:00Z,29.2533,-90.6633,1.58,16.56,1111122 
LUMCON,ioos:station:LUMCON:101:1,2014-12-05T07:45:00Z,29.2533,-90.6633,1.56,15.96,1111122 
LUMCON,ioos:station:LUMCON:101:1,2014-12-05T08:45:00Z,29.2533,-90.6633,1.53,16.43,1111122 
LUMCON,ioos:station:LUMCON:101:1,2014-12-05T09:45:00Z,29.2533,-90.6633,1.53,13.72,1111122 
LUMCON,ioos:station:LUMCON:101:1,2014-12-05T10:45:00Z,29.2533,-90.6633,1.54,13.63,1111122 
LUMCON,ioos:station:LUMCON:101:1,2014-12-05T11:45:00Z,29.2533,-90.6633,1.58,14.62,1111122 
LUMCON,ioos:station:LUMCON:101:1,2014-12-05T12:45:00Z,29.2533,-90.6633,1.62,14.6,1111122 
LUMCON,ioos:station:LUMCON:101:1,2014-12-05T13:45:00Z,29.2533,-90.6633,1.67,17.07,1111122 
LUMCON,ioos:station:LUMCON:101:1,2014-12-05T14:45:00Z,29.2533,-90.6633,1.72,16.74,1111122 
LUMCON,ioos:station:LUMCON:101:1,2014-12-05T15:45:00Z,29.2533,-90.6633,1.76,16.96,1111122 
LUMCON,ioos:station:LUMCON:101:1,2014-12-05T16:45:00Z,29.2533,-90.6633,1.8,15.0,1111122 
LUMCON,ioos:station:LUMCON:101:1,2014-12-05T17:45:00Z,29.2533,-90.6633,1.83,15.2,1111122 
LUMCON,ioos:station:LUMCON:101:1,2014-12-05T18:45:00Z,29.2533,-90.6633,1.86,15.38,1111122 
LUMCON,ioos:station:LUMCON:101:1,2014-12-05T19:45:00Z,29.2533,-90.6633,1.89,18.12,1111122 
LUMCON,ioos:station:LUMCON:101:1,2014-12-05T20:45:00Z,29.2533,-90.6633,1.91,18.33,1111122 
LUMCON,ioos:station:LUMCON:101:1,2014-12-05T21:45:00Z,29.2533,-90.6633,1.93,18.42,1111122 
LUMCON,ioos:station:LUMCON:101:1,2014-12-05T22:45:00Z,29.2533,-90.6633,1.92,15.79,1111122 
LUMCON,ioos:station:LUMCON:101:1,2014-12-05T23:45:00Z,29.2533,-90.6633,1.91,16.07,1111122 
LUMCON,ioos:station:LUMCON:101:1,2014-12-06T00:45:00Z,29.2533,-90.6633,1.88,20.62,1111122 
LUMCON,ioos:station:LUMCON:101:1,2014-12-06T02:45:00Z,29.2533,-90.6633,1.79,20.02,1111122 
LUMCON,ioos:station:LUMCON:101:1,2014-12-06T03:45:00Z,29.2533,-90.6633,1.73,19.79,1111122 
LUMCON,ioos:station:LUMCON:101:1,2014-12-06T04:45:00Z,29.2533,-90.6633,1.67,19.36,1111122 
LUMCON,ioos:station:LUMCON:101:1,2014-12-06T05:45:00Z,29.2533,-90.6633,1.62,18.88,1111122 
LUMCON,ioos:station:LUMCON:101:1,2014-12-06T06:45:00Z,29.2533,-90.6633,1.57,18.18,1111122 
LUMCON,ioos:station:LUMCON:101:1,2014-12-06T07:45:00Z,29.2533,-90.6633,1.52,17.24,1111122 
LUMCON,ioos:station:LUMCON:101:1,2014-12-06T08:45:00Z,29.2533,-90.6633,1.49,17.29,1111122 
LUMCON,ioos:station:LUMCON:101:1,2014-12-06T09:45:00Z,29.2533,-90.6633,1.45,17.11,1111122 
LUMCON,ioos:station:LUMCON:101:1,2014-12-06T10:45:00Z,29.2533,-90.6633,1.43,17.43,1111122 
LUMCON,ioos:station:LUMCON:101:1,2014-12-06T11:45:00Z,29.2533,-90.6633,1.44,14.86,1111122 
LUMCON,ioos:station:LUMCON:101:1,2014-12-06T12:45:00Z,29.2533,-90.6633,1.48,17.55,1111122 
LUMCON,ioos:station:LUMCON:101:1,2014-12-06T13:45:00Z,29.2533,-90.6633,1.51,18.09,1111122 
LUMCON,ioos:station:LUMCON:101:1,2014-12-06T14:45:00Z,29.2533,-90.6633,1.57,17.19,1111122 
LUMCON,ioos:station:LUMCON:101:1,2014-12-06T15:45:00Z,29.2533,-90.6633,1.62,17.61,1111122 
LUMCON,ioos:station:LUMCON:101:1,2014-12-06T16:45:00Z,29.2533,-90.6633,1.67,18.2,1111122 
LUMCON,ioos:station:LUMCON:101:1,2014-12-06T17:45:00Z,29.2533,-90.6633,1.7,17.92,1111122 
LUMCON,ioos:station:LUMCON:101:1,2014-12-06T18:45:00Z,29.2533,-90.6633,1.74,18.17,1111122 
LUMCON,ioos:station:LUMCON:101:1,2014-12-06T19:45:00Z,29.2533,-90.6633,1.76,18.38,1111122 
LUMCON,ioos:station:LUMCON:101:1,2014-12-06T20:45:00Z,29.2533,-90.6633,1.79,15.9,1111122 
LUMCON,ioos:station:LUMCON:101:1,2014-12-06T21:45:00Z,29.2533,-90.6633,1.81,18.68,1111122 
LUMCON,ioos:station:LUMCON:101:1,2014-12-06T22:45:00Z,29.2533,-90.6633,1.81,18.38,1111122 
LUMCON,ioos:station:LUMCON:101:1,2014-12-06T23:45:00Z,29.2533,-90.6633,1.79,18.26,1111122 
LUMCON,ioos:station:LUMCON:101:1,2014-12-07T00:45:00Z,29.2533,-90.6633,1.73,18.31,1111122 
LUMCON,ioos:station:LUMCON:101:1,2014-12-07T01:45:00Z,29.2533,-90.6633,1.68,17.73,1111122 
LUMCON,ioos:station:LUMCON:101:1,2014-12-07T02:45:00Z,29.2533,-90.6633,1.63,18.53,1111122 
LUMCON,ioos:station:LUMCON:101:1,2014-12-07T03:45:00Z,29.2533,-90.6633,1.57,18.79,1111122 
LUMCON,ioos:station:LUMCON:101:1,2014-12-07T04:45:00Z,29.2533,-90.6633,1.53,18.26,1111122 
LUMCON,ioos:station:LUMCON:101:1,2014-12-07T05:45:00Z,29.2533,-90.6633,1.5,16.73,1111122 
LUMCON,ioos:station:LUMCON:101:1,2014-12-07T06:45:00Z,29.2533,-90.6633,1.45,17.93,1111122 
LUMCON,ioos:station:LUMCON:101:1,2014-12-07T07:45:00Z,29.2533,-90.6633,1.41,17.58,1111122 
LUMCON,ioos:station:LUMCON:101:1,2014-12-07T08:45:00Z,29.2533,-90.6633,1.39,18.13,1111122 
LUMCON,ioos:station:LUMCON:101:1,2014-12-07T09:45:00Z,29.2533,-90.6633,1.38,17.93,1111122 
LUMCON,ioos:station:LUMCON:101:1,2014-12-07T10:45:00Z,29.2533,-90.6633,1.37,17.83,1111122 
LUMCON,ioos:station:LUMCON:101:1,2014-12-07T11:45:00Z,29.2533,-90.6633,1.37,17.27,1111122 
LUMCON,ioos:station:LUMCON:101:1,2014-12-07T12:45:00Z,29.2533,-90.6633,1.4,18.51,1111122 
LUMCON,ioos:station:LUMCON:101:1,2014-12-07T13:45:00Z,29.2533,-90.6633,1.43,17.61,1111122 
LUMCON,ioos:station:LUMCON:101:1,2014-12-07T14:45:00Z,29.2533,-90.6633,1.48,16.66,1111122 
LUMCON,ioos:station:LUMCON:101:1,2014-12-07T15:45:00Z,29.2533,-90.6633,1.53,17.38,1111122 
LUMCON,ioos:station:LUMCON:101:1,2014-12-07T16:45:00Z,29.2533,-90.6633,1.58,17.51,1111122 
LUMCON,ioos:station:LUMCON:101:1,2014-12-07T17:45:00Z,29.2533,-90.6633,1.64,16.98,1111122 
LUMCON,ioos:station:LUMCON:101:1,2014-12-07T18:45:00Z,29.2533,-90.6633,1.69,17.94,1111122 
LUMCON,ioos:station:LUMCON:101:1,2014-12-07T19:45:00Z,29.2533,-90.6633,1.73,18.31,1111122 
LUMCON,ioos:station:LUMCON:101:1,2014-12-07T20:45:00Z,29.2533,-90.6633,1.77,19.01,1111122 
LUMCON,ioos:station:LUMCON:101:1,2014-12-07T21:45:00Z,29.2533,-90.6633,1.8,19.62,1111122 
LUMCON,ioos:station:LUMCON:101:1,2014-12-07T22:45:00Z,29.2533,-90.6633,1.84,20.01,1111122 
LUMCON,ioos:station:LUMCON:101:1,2014-12-07T23:45:00Z,29.2533,-90.6633,1.85,20.32,1111122 
LUMCON,ioos:station:LUMCON:101:1,2014-12-08T00:45:00Z,29.2533,-90.6633,1.85,20.23,1111122 
LUMCON,ioos:station:LUMCON:101:1,2014-12-08T01:45:00Z,29.2533,-90.6633,1.84,20.28,1111122 
LUMCON,ioos:station:LUMCON:101:1,2014-12-08T02:45:00Z,29.2533,-90.6633,1.82,20.07,1111122 
LUMCON,ioos:station:LUMCON:101:1,2014-12-08T03:45:00Z,29.2533,-90.6633,1.77,19.85,1111122 
LUMCON,ioos:station:LUMCON:101:1,2014-12-08T04:45:00Z,29.2533,-90.6633,1.73,19.54,1111122 
LUMCON,ioos:station:LUMCON:101:1,2014-12-08T05:45:00Z,29.2533,-90.6633,1.66,19.98,1111122 
LUMCON,ioos:station:LUMCON:101:1,2014-12-08T06:45:00Z,29.2533,-90.6633,1.6,18.79,1111122 
LUMCON,ioos:station:LUMCON:101:1,2014-12-08T07:45:00Z,29.2533,-90.6633,1.55,18.39,1111122 
LUMCON,ioos:station:LUMCON:101:1,2014-12-08T08:45:00Z,29.2533,-90.6633,1.51,18.43,1111122 
LUMCON,ioos:station:LUMCON:101:1,2014-12-08T09:45:00Z,29.2533,-90.6633,1.47,18.33,1111122 
LUMCON,ioos:station:LUMCON:101:1,2014-12-08T10:45:00Z,29.2533,-90.6633,1.43,18.13,1111122 
LUMCON,ioos:station:LUMCON:101:1,2014-12-08T11:45:00Z,29.2533,-90.6633,1.41,17.04,1111122 
LUMCON,ioos:station:LUMCON:101:1,2014-12-08T12:45:00Z,29.2533,-90.6633,1.41,17.87,1111122 
LUMCON,ioos:station:LUMCON:101:1,2014-12-08T13:45:00Z,29.2533,-90.6633,1.42,17.76,1111122 
LUMCON,ioos:station:LUMCON:101:1,2014-12-08T14:45:00Z,29.2533,-90.6633,1.46,18.48,1111122 
LUMCON,ioos:station:LUMCON:101:1,2014-12-08T17:45:00Z,29.2533,-90.6633,1.62,18.36,1111122 
LUMCON,ioos:station:LUMCON:101:1,2014-12-08T18:45:00Z,29.2533,-90.6633,1.66,16.59,1111122 
LUMCON,ioos:station:LUMCON:101:1,2014-12-08T19:45:00Z,29.2533,-90.6633,1.7,18.65,1111122 
LUMCON,ioos:station:LUMCON:101:1,2014-12-08T20:45:00Z,29.2533,-90.6633,1.72,18.36,1111122 
LUMCON,ioos:station:LUMCON:101:1,2014-12-08T21:45:00Z,29.2533,-90.6633,1.75,18.65,1111122 
LUMCON,ioos:station:LUMCON:101:1,2014-12-08T22:45:00Z,29.2533,-90.6633,1.76,18.57,1111122 
LUMCON,ioos:station:LUMCON:101:1,2014-12-08T23:45:00Z,29.2533,-90.6633,1.77,18.91,1111122 
LUMCON,ioos:station:LUMCON:101:1,2014-12-09T00:45:00Z,29.2533,-90.6633,1.76,18.99,1111122 
LUMCON,ioos:station:LUMCON:101:1,2014-12-09T01:45:00Z,29.2533,-90.6633,1.74,18.94,1111122 
LUMCON,ioos:station:LUMCON:101:1,2014-12-09T02:45:00Z,29.2533,-90.6633,1.71,18.6,1111122 
LUMCON,ioos:station:LUMCON:101:1,2014-12-09T03:45:00Z,29.2533,-90.6633,1.67,18.97,1111122 
LUMCON,ioos:station:LUMCON:101:1,2014-12-09T04:45:00Z,29.2533,-90.6633,1.63,18.52,1111122 
LUMCON,ioos:station:LUMCON:101:1,2014-12-09T05:45:00Z,29.2533,-90.6633,1.59,18.43,1111122 
LUMCON,ioos:station:LUMCON:101:1,2014-12-09T06:45:00Z,29.2533,-90.6633,1.53,18.35,1111122 
LUMCON,ioos:station:LUMCON:101:1,2014-12-09T07:45:00Z,29.2533,-90.6633,1.49,18.09,1111122 
LUMCON,ioos:station:LUMCON:101:1,2014-12-09T08:45:00Z,29.2533,-90.6633,1.45,18.13,1111122 
LUMCON,ioos:station:LUMCON:101:1,2014-12-09T09:45:00Z,29.2533,-90.6633,1.41,14.65,1111122 
LUMCON,ioos:station:LUMCON:101:1,2014-12-09T10:45:00Z,29.2533,-90.6633,1.38,18.01,1111122 
LUMCON,ioos:station:LUMCON:101:1,2014-12-09T11:45:00Z,29.2533,-90.6633,1.37,18.15,1111122 
LUMCON,ioos:station:LUMCON:101:1,2014-12-09T12:45:00Z,29.2533,-90.6633,1.38,17.95,1111122 
LUMCON,ioos:station:LUMCON:101:1,2014-12-09T13:45:00Z,29.2533,-90.6633,1.41,14.49,1111122 
LUMCON,ioos:station:LUMCON:101:1,2014-12-09T14:45:00Z,29.2533,-90.6633,1.46,14.6,1111122 
LUMCON,ioos:station:LUMCON:101:1,2014-12-09T15:45:00Z,29.2533,-90.6633,1.51,17.53,1111122 
LUMCON,ioos:station:LUMCON:101:1,2014-12-09T16:45:00Z,29.2533,-90.6633,1.55,17.78,1111122 
LUMCON,ioos:station:LUMCON:101:1,2014-12-09T17:45:00Z,29.2533,-90.6633,1.58,17.83,1111122 
LUMCON,ioos:station:LUMCON:101:1,2014-12-10T14:45:00Z,29.2533,-90.6633,1.45,17.62,1111122 
LUMCON,ioos:station:LUMCON:101:1,2014-12-10T15:45:00Z,29.2533,-90.6633,1.48,16.99,1111122 
LUMCON,ioos:station:LUMCON:101:1,2014-12-10T16:45:00Z,29.2533,-90.6633,1.52,17.16,1111122 
LUMCON,ioos:station:LUMCON:101:1,2014-12-10T17:45:00Z,29.2533,-90.6633,1.57,16.96,1111122 
LUMCON,ioos:station:LUMCON:101:1,2014-12-10T18:45:00Z,29.2533,-90.6633,1.61,17.27,1111122 
LUMCON,ioos:station:LUMCON:101:1,2014-12-10T19:45:00Z,29.2533,-90.6633,1.63,16.55,1111122 
LUMCON,ioos:station:LUMCON:101:1,2014-12-10T21:45:00Z,29.2533,-90.6633,1.68,17.2,1111122 
LUMCON,ioos:station:LUMCON:101:1,2014-12-10T22:45:00Z,29.2533,-90.6633,1.69,17.14,1111122 
LUMCON,ioos:station:LUMCON:101:1,2014-12-10T23:45:00Z,29.2533,-90.6633,1.7,17.19,1111122 
LUMCON,ioos:station:LUMCON:101:1,2014-12-11T00:45:00Z,29.2533,-90.6633,1.71,17.63,1111122 
LUMCON,ioos:station:LUMCON:101:1,2014-12-11T01:45:00Z,29.2533,-90.6633,1.7,17.75,1111122 
LUMCON,ioos:station:LUMCON:101:1,2014-12-11T03:45:00Z,29.2533,-90.6633,1.65,17.44,1111122 
LUMCON,ioos:station:LUMCON:101:1,2014-12-11T05:45:00Z,29.2533,-90.6633,1.57,17.02,1111122 
LUMCON,ioos:station:LUMCON:101:1,2014-12-11T06:45:00Z,29.2533,-90.6633,1.55,16.47,1111122 
LUMCON,ioos:station:LUMCON:101:1,2014-12-11T07:45:00Z,29.2533,-90.6633,1.5,16.72,1111122 
LUMCON,ioos:station:LUMCON:101:1,2014-12-11T08:45:00Z,29.2533,-90.6633,1.47,17.11,1111122 
LUMCON,ioos:station:LUMCON:101:1,2014-12-11T09:45:00Z,29.2533,-90.6633,1.43,17.22,1111122 
LUMCON,ioos:station:LUMCON:101:1,2014-12-11T10:45:00Z,29.2533,-90.6633,1.4,17.16,1111122 
LUMCON,ioos:station:LUMCON:101:1,2014-12-11T11:45:00Z,29.2533,-90.6633,1.38,15.67,1111122 
LUMCON,ioos:station:LUMCON:101:1,2014-12-11T12:45:00Z,29.2533,-90.6633,1.37,17.28,1111122 
LUMCON,ioos:station:LUMCON:101:1,2014-12-11T14:45:00Z,29.2533,-90.6633,1.37,17.31,1111122 
LUMCON,ioos:station:LUMCON:101:1,2014-12-11T15:45:00Z,29.2533,-90.6633,1.4,16.87,1111122 
LUMCON,ioos:station:LUMCON:101:1,2014-12-11T16:45:00Z,29.2533,-90.6633,1.44,17.45,1111122 
LUMCON,ioos:station:LUMCON:101:1,2014-12-11T17:45:00Z,29.2533,-90.6633,1.49,16.25,1111122 
LUMCON,ioos:station:LUMCON:101:1,2014-12-11T18:45:00Z,29.2533,-90.6633,1.53,16.01,1111122 
LUMCON,ioos:station:LUMCON:101:1,2014-12-11T19:45:00Z,29.2533,-90.6633,1.56,16.34,1111122 
LUMCON,ioos:station:LUMCON:101:1,2014-12-11T20:45:00Z,29.2533,-90.6633,1.6,16.38,1111122 
LUMCON,ioos:station:LUMCON:101:1,2014-12-11T21:45:00Z,29.2533,-90.6633,1.63,16.6,1111122 
LUMCON,ioos:station:LUMCON:101:1,2014-12-11T22:45:00Z,29.2533,-90.6633,1.66,16.64,1111122 
LUMCON,ioos:station:LUMCON:101:1,2014-12-11T23:45:00Z,29.2533,-90.6633,1.67,17.27,1111122 
LUMCON,ioos:station:LUMCON:101:1,2014-12-12T00:45:00Z,29.2533,-90.6633,1.68,16.75,1111122 
LUMCON,ioos:station:LUMCON:101:1,2014-12-12T01:45:00Z,29.2533,-90.6633,1.68,16.46,1111122 
LUMCON,ioos:station:LUMCON:101:1,2014-12-12T02:45:00Z,29.2533,-90.6633,1.68,16.47,1111122 
LUMCON,ioos:station:LUMCON:101:1,2014-12-12T03:45:00Z,29.2533,-90.6633,1.66,16.61,1111122 
LUMCON,ioos:station:LUMCON:101:1,2014-12-12T04:45:00Z,29.2533,-90.6633,1.62,16.65,1111122 
LUMCON,ioos:station:LUMCON:101:1,2014-12-12T06:45:00Z,29.2533,-90.6633,1.58,14.85,1111122 
LUMCON,ioos:station:LUMCON:101:1,2014-12-12T07:45:00Z,29.2533,-90.6633,1.54,16.23,1111122 
LUMCON,ioos:station:LUMCON:101:1,2014-12-12T08:45:00Z,29.2533,-90.6633,1.52,13.55,1111122 
LUMCON,ioos:station:LUMCON:101:1,2014-12-12T09:45:00Z,29.2533,-90.6633,1.5,17.14,1111122 
LUMCON,ioos:station:LUMCON:101:1,2014-12-12T10:45:00Z,29.2533,-90.6633,1.47,15.73,1111122 
LUMCON,ioos:station:LUMCON:101:1,2014-12-12T11:45:00Z,29.2533,-90.6633,1.47,15.66,1111122 
LUMCON,ioos:station:LUMCON:101:1,2014-12-12T12:45:00Z,29.2533,-90.6633,1.46,15.93,1111122 
LUMCON,ioos:station:LUMCON:101:1,2014-12-12T13:45:00Z,29.2533,-90.6633,1.45,15.84,1111122 
LUMCON,ioos:station:LUMCON:101:1,2014-12-12T14:45:00Z,29.2533,-90.6633,1.46,15.77,1111122 
LUMCON,ioos:station:LUMCON:101:1,2014-12-12T15:45:00Z,29.2533,-90.6633,1.48,15.7,1111122 
LUMCON,ioos:station:LUMCON:101:1,2014-12-12T16:30:00Z,29.2533,-90.6633,1.51,16.24,1111122 
LUMCON,ioos:station:LUMCON:101:1,2014-12-12T17:45:00Z,29.2533,-90.6633,1.55,16.05,1111122 
LUMCON,ioos:station:LUMCON:101:1,2014-12-12T18:45:00Z,29.2533,-90.6633,1.58,16.46,1111122 
LUMCON,ioos:station:LUMCON:101:1,2014-12-12T19:45:00Z,29.2533,-90.6633,1.61,16.19,1111122 
LUMCON,ioos:station:LUMCON:101:1,2014-12-12T20:45:00Z,29.2533,-90.6633,1.63,16.64,1111122 
LUMCON,ioos:station:LUMCON:101:1,2014-12-12T21:45:00Z,29.2533,-90.6633,1.65,16.99,1111122 
LUMCON,ioos:station:LUMCON:101:1,2014-12-12T22:45:00Z,29.2533,-90.6633,1.67,16.52,1111122 
LUMCON,ioos:station:LUMCON:101:1,2014-12-12T23:45:00Z,29.2533,-90.6633,1.68,17.05,1111122 
LUMCON,ioos:station:LUMCON:101:1,2014-12-13T00:45:00Z,29.2533,-90.6633,1.68,17.03,1111122 
LUMCON,ioos:station:LUMCON:101:1,2014-12-13T01:45:00Z,29.2533,-90.6633,1.68,16.97,1111122 
LUMCON,ioos:station:LUMCON:101:1,2014-12-13T02:45:00Z,29.2533,-90.6633,1.65,14.04,1111122 
LUMCON,ioos:station:LUMCON:101:1,2014-12-13T03:45:00Z,29.2533,-90.6633,1.64,16.47,1111122 
LUMCON,ioos:station:LUMCON:101:1,2014-12-13T04:45:00Z,29.2533,-90.6633,1.62,16.51,1111122 
LUMCON,ioos:station:LUMCON:101:1,2014-12-13T05:45:00Z,29.2533,-90.6633,1.59,16.96,1111122 
LUMCON,ioos:station:LUMCON:101:1,2014-12-13T06:45:00Z,29.2533,-90.6633,1.57,16.74,1111122 
LUMCON,ioos:station:LUMCON:101:1,2014-12-13T07:45:00Z,29.2533,-90.6633,1.56,17.13,1111122 
LUMCON,ioos:station:LUMCON:101:1,2014-12-13T08:45:00Z,29.2533,-90.6633,1.54,16.53,1111122 
LUMCON,ioos:station:LUMCON:101:1,2014-12-13T09:45:00Z,29.2533,-90.6633,1.52,16.73,1111122 
LUMCON,ioos:station:LUMCON:101:1,2014-12-13T10:45:00Z,29.2533,-90.6633,1.52,16.64,1111122 
LUMCON,ioos:station:LUMCON:101:1,2014-12-13T11:45:00Z,29.2533,-90.6633,1.51,16.47,1111122 
LUMCON,ioos:station:LUMCON:101:1,2014-12-13T12:45:00Z,29.2533,-90.6633,1.5,16.37,1111122 
LUMCON,ioos:station:LUMCON:101:1,2014-12-13T13:45:00Z,29.2533,-90.6633,1.51,16.44,1111122 
LUMCON,ioos:station:LUMCON:101:1,2014-12-13T14:45:00Z,29.2533,-90.6633,1.51,15.76,1111122 
LUMCON,ioos:station:LUMCON:101:1,2014-12-13T15:45:00Z,29.2533,-90.6633,1.52,16.99,1111122 
LUMCON,ioos:station:LUMCON:101:1,2014-12-13T16:45:00Z,29.2533,-90.6633,1.54,16.83,1111122 
LUMCON,ioos:station:LUMCON:101:1,2014-12-13T17:45:00Z,29.2533,-90.6633,1.57,16.66,1111122 
LUMCON,ioos:station:LUMCON:101:1,2014-12-13T18:45:00Z,29.2533,-90.6633,1.6,14.23,1111122 
LUMCON,ioos:station:LUMCON:101:1,2014-12-13T19:45:00Z,29.2533,-90.6633,1.61,17.6,1111122 
LUMCON,ioos:station:LUMCON:101:1,2014-12-13T20:45:00Z,29.2533,-90.6633,1.63,15.32,1111122 
LUMCON,ioos:station:LUMCON:101:1,2014-12-13T21:45:00Z,29.2533,-90.6633,1.65,17.12,1111122 
LUMCON,ioos:station:LUMCON:101:1,2014-12-13T22:45:00Z,29.2533,-90.6633,1.65,14.3,1111122 
LUMCON,ioos:station:LUMCON:101:1,2014-12-13T23:45:00Z,29.2533,-90.6633,1.65,16.83,1111122 
LUMCON,ioos:station:LUMCON:101:1,2014-12-14T00:45:00Z,29.2533,-90.6633,1.63,16.62,1111122 
LUMCON,ioos:station:LUMCON:101:1,2014-12-14T01:45:00Z,29.2533,-90.6633,1.61,16.99,1111122 
LUMCON,ioos:station:LUMCON:101:1,2014-12-14T02:45:00Z,29.2533,-90.6633,1.59,16.87,1111122 
LUMCON,ioos:station:LUMCON:101:1,2014-12-14T03:45:00Z,29.2533,-90.6633,1.57,17.0,1111122 
LUMCON,ioos:station:LUMCON:101:1,2014-12-14T04:45:00Z,29.2533,-90.6633,1.57,17.2,1111122 
LUMCON,ioos:station:LUMCON:101:1,2014-12-14T05:45:00Z,29.2533,-90.6633,1.56,16.89,1111122 
LUMCON,ioos:station:LUMCON:101:1,2014-12-14T06:45:00Z,29.2533,-90.6633,1.56,16.19,1111122 
LUMCON,ioos:station:LUMCON:101:1,2014-12-14T07:45:00Z,29.2533,-90.6633,1.57,14.07,1111122 
LUMCON,ioos:station:LUMCON:101:1,2014-12-14T08:45:00Z,29.2533,-90.6633,1.57,16.95,1111122 
LUMCON,ioos:station:LUMCON:101:1,2014-12-14T09:45:00Z,29.2533,-90.6633,1.56,17.03,1111122 
LUMCON,ioos:station:LUMCON:101:1,2014-12-14T10:45:00Z,29.2533,-90.6633,1.58,16.68,1111122 
LUMCON,ioos:station:LUMCON:101:1,2014-12-14T11:30:00Z,29.2533,-90.6633,1.58,16.82,1111122 
LUMCON,ioos:station:LUMCON:101:1,2014-12-14T12:45:00Z,29.2533,-90.6633,1.59,16.97,1111122 
LUMCON,ioos:station:LUMCON:101:1,2014-12-14T13:45:00Z,29.2533,-90.6633,1.58,17.5,1111122 
LUMCON,ioos:station:LUMCON:101:1,2014-12-14T14:45:00Z,29.2533,-90.6633,1.61,17.09,1111122 
LUMCON,ioos:station:LUMCON:101:1,2014-12-14T15:45:00Z,29.2533,-90.6633,1.63,17.09,1111122 
LUMCON,ioos:station:LUMCON:101:1,2014-12-14T16:45:00Z,29.2533,-90.6633,1.65,17.33,1111122 
LUMCON,ioos:station:LUMCON:101:1,2014-12-14T17:45:00Z,29.2533,-90.6633,1.68,17.72,1111122 
LUMCON,ioos:station:LUMCON:101:1,2014-12-14T18:45:00Z,29.2533,-90.6633,1.71,17.62,1111122 
LUMCON,ioos:station:LUMCON:101:1,2014-12-14T19:45:00Z,29.2533,-90.6633,1.73,18.24,1111122 
LUMCON,ioos:station:LUMCON:101:1,2014-12-14T20:45:00Z,29.2533,-90.6633,1.75,18.6,1111122 
LUMCON,ioos:station:LUMCON:101:1,2014-12-14T21:45:00Z,29.2533,-90.6633,1.78,18.77,1111122 
LUMCON,ioos:station:LUMCON:101:1,2014-12-14T22:45:00Z,29.2533,-90.6633,1.79,19.15,1111122 
LUMCON,ioos:station:LUMCON:101:1,2014-12-14T23:45:00Z,29.2533,-90.6633,1.79,19.65,1111122 
LUMCON,ioos:station:LUMCON:101:1,2014-12-15T00:45:00Z,29.2533,-90.6633,1.8,20.4,1111122 
LUMCON,ioos:station:LUMCON:101:1,2014-12-15T01:45:00Z,29.2533,-90.6633,1.77,16.85,1111122 
LUMCON,ioos:station:LUMCON:101:1,2014-12-15T02:45:00Z,29.2533,-90.6633,1.75,19.22,1111122 
LUMCON,ioos:station:LUMCON:101:1,2014-12-15T03:45:00Z,29.2533,-90.6633,1.73,18.98,1111122 
LUMCON,ioos:station:LUMCON:101:1,2014-12-15T04:45:00Z,29.2533,-90.6633,1.7,17.66,1111122 
LUMCON,ioos:station:LUMCON:101:1,2014-12-15T05:45:00Z,29.2533,-90.6633,1.69,18.23,1111122 
LUMCON,ioos:station:LUMCON:101:1,2014-12-15T06:45:00Z,29.2533,-90.6633,1.66,18.68,1111122 
LUMCON,ioos:station:LUMCON:101:1,2014-12-15T07:45:00Z,29.2533,-90.6633,1.68,18.36,1111122 
LUMCON,ioos:station:LUMCON:101:1,2014-12-15T08:45:00Z,29.2533,-90.6633,1.68,19.48,1111122 
LUMCON,ioos:station:LUMCON:101:1,2014-12-15T09:45:00Z,29.2533,-90.6633,1.68,16.7,1111122 
LUMCON,ioos:station:LUMCON:101:1,2014-12-15T10:45:00Z,29.2533,-90.6633,1.69,19.67,1111122 
LUMCON,ioos:station:LUMCON:101:1,2014-12-15T11:45:00Z,29.2533,-90.6633,1.71,17.03,1111122 
LUMCON,ioos:station:LUMCON:101:1,2014-12-15T12:45:00Z,29.2533,-90.6633,1.72,16.88,1111122 
LUMCON,ioos:station:LUMCON:101:1,2014-12-15T13:45:00Z,29.2533,-90.6633,1.73,19.84,1111122 
LUMCON,ioos:station:LUMCON:101:1,2014-12-15T14:45:00Z,29.2533,-90.6633,1.75,19.8,1111122 
LUMCON,ioos:station:LUMCON:101:1,2014-12-15T15:45:00Z,29.2533,-90.6633,1.77,19.67,1111122 
LUMCON,ioos:station:LUMCON:101:1,2014-12-15T16:45:00Z,29.2533,-90.6633,1.79,19.6,1111122 
LUMCON,ioos:station:LUMCON:101:1,2014-12-15T17:45:00Z,29.2533,-90.6633,1.8,19.58,1111122 
LUMCON,ioos:station:LUMCON:101:1,2014-12-15T18:45:00Z,29.2533,-90.6633,1.81,19.4,1111122 
LUMCON,ioos:station:LUMCON:101:1,2014-12-15T19:45:00Z,29.2533,-90.6633,1.83,20.01,1111122 
LUMCON,ioos:station:LUMCON:101:1,2014-12-15T20:45:00Z,29.2533,-90.6633,1.84,19.63,1111122 
LUMCON,ioos:station:LUMCON:101:1,2014-12-15T21:45:00Z,29.2533,-90.6633,1.85,19.83,1111122 
LUMCON,ioos:station:LUMCON:101:1,2014-12-15T22:45:00Z,29.2533,-90.6633,1.84,20.38,1111122 
LUMCON,ioos:station:LUMCON:101:1,2014-12-15T23:45:00Z,29.2533,-90.6633,1.83,20.46,1111122 
LUMCON,ioos:station:LUMCON:101:1,2014-12-16T01:45:00Z,29.2533,-90.6633,1.77,19.96,1111122 
LUMCON,ioos:station:LUMCON:101:1,2014-12-16T02:45:00Z,29.2533,-90.6633,1.73,19.62,1111122 
LUMCON,ioos:station:LUMCON:101:1,2014-12-16T03:45:00Z,29.2533,-90.6633,1.7,19.41,1111122 
LUMCON,ioos:station:LUMCON:101:1,2014-12-16T04:45:00Z,29.2533,-90.6633,1.68,18.92,1111122 
LUMCON,ioos:station:LUMCON:101:1,2014-12-16T05:45:00Z,29.2533,-90.6633,1.63,17.32,1111122 
LUMCON,ioos:station:LUMCON:101:1,2014-12-16T10:45:00Z,29.2533,-90.6633,1.53,17.14,1111122 
LUMCON,ioos:station:LUMCON:101:1,2014-12-16T11:45:00Z,29.2533,-90.6633,1.57,18.1,1111122 
LUMCON,ioos:station:LUMCON:101:1,2014-12-16T12:45:00Z,29.2533,-90.6633,1.59,17.94,1111122 
LUMCON,ioos:station:LUMCON:101:1,2014-12-16T13:45:00Z,29.2533,-90.6633,1.62,18.27,1111122 